�N����,����,�g�[���i�䏊�j���x,�g�[�����x,��g�[���i���ցj���x,����
 2004/03/01, 0:00,19.1,52,14.1,-9.9
 2004/03/01, 0:15,18.9,52,14.1,-9.9
 2004/03/01, 0:30,18.7,52,14,-9.9
 2004/03/01, 0:45,18.4,52,13.9,-9.9
 2004/03/01, 1:00,18.3,52,13.9,-9.9
 2004/03/01, 1:15,18.2,52,13.8,-9.9
 2004/03/01, 1:30,18.1,52,13.8,-9.9
 2004/03/01, 1:45,17.9,52,13.7,-9.9
 2004/03/01, 2:00,17.8,52,13.6,-9.9
 2004/03/01, 2:15,17.6,52,13.5,-9.9
 2004/03/01, 2:30,17.6,52,13.5,-9.9
 2004/03/01, 2:45,17.4,52,13.3,-9.9
 2004/03/01, 3:00,17.3,52,13.3,-9.9
 2004/03/01, 3:15,17.1,52,13.3,-9.9
 2004/03/01, 3:30,16.9,52,13.2,-9.9
 2004/03/01, 3:45,16.8,52,13.2,-9.9
 2004/03/01, 4:00,16.7,52,13.1,-9.9
 2004/03/01, 4:15,16.7,52,13,-9.9
 2004/03/01, 4:30,16.5,52,13,-9.9
 2004/03/01, 4:45,16.4,52,12.9,-9.9
 2004/03/01, 5:00,16.2,52,12.8,-9.9
 2004/03/01, 5:15,16,52,12.7,-9.9
 2004/03/01, 5:30,15.9,51,12.7,-9.9
 2004/03/01, 5:45,15.9,52,12.8,-9.9
 2004/03/01, 6:00,15.8,54,12.7,-9.9
 2004/03/01, 6:15,16.5,54,12.5,-9.9
 2004/03/01, 6:30,19.3,54,12.5,-9.9
 2004/03/01, 6:45,19.9,54,12.4,-9.9
 2004/03/01, 7:00,19.9,54,12.5,-9.9
 2004/03/01, 7:15,20.2,53,12.4,-9.9
 2004/03/01, 7:30,20.2,50,12.3,-9.9
 2004/03/01, 7:45,20.4,49,12.2,-9.9
 2004/03/01, 8:00,20.5,49,12.2,-9.9
 2004/03/01, 8:15,20.4,49,12,-9.9
 2004/03/01, 8:30,20.4,47,12.8,-9.9
 2004/03/01, 8:45,18.9,47,12.8,-9.9
 2004/03/01, 9:00,18.4,49,12.8,-9.9
 2004/03/01, 9:15,17.7,48,12.8,-9.9
 2004/03/01, 9:30,17.4,48,12.9,-9.9
 2004/03/01, 9:45,17,48,12.9,-9.9
 2004/03/01,10:00,16.6,49,12.8,-9.9
 2004/03/01,10:15,16.4,49,12.8,-9.9
 2004/03/01,10:30,16.3,49,12.7,-9.9
 2004/03/01,10:45,16,49,12.5,-9.9
 2004/03/01,11:00,15.8,50,12.5,-9.9
 2004/03/01,11:15,15.5,50,12.4,-9.9
 2004/03/01,11:30,15.6,50,12.3,-9.9
 2004/03/01,11:45,15.3,50,12.3,-9.9
 2004/03/01,12:00,15.1,51,12.3,-9.9
 2004/03/01,12:15,15,51,12.4,-9.9
 2004/03/01,12:30,14.9,51,12.5,-9.9
 2004/03/01,12:45,14.8,51,12.5,-9.9
 2004/03/01,13:00,14.8,51,12.6,-9.9
 2004/03/01,13:15,14.8,51,12.7,-9.9
 2004/03/01,13:30,14.7,51,12.7,-9.9
 2004/03/01,13:45,14.7,52,12.7,-9.9
 2004/03/01,14:00,14.7,52,12.6,-9.9
 2004/03/01,14:15,14.5,53,12.5,-9.9
 2004/03/01,14:30,14.5,53,12.5,-9.9
 2004/03/01,14:45,14.5,53,12.5,-9.9
 2004/03/01,15:00,14.3,53,12.4,-9.9
 2004/03/01,15:15,14.3,53,12.5,-9.9
 2004/03/01,15:30,14.2,53,12.3,-9.9
 2004/03/01,15:45,14.4,51,12.3,-9.9
 2004/03/01,16:00,15,54,12,-9.9
 2004/03/01,16:15,14.7,53,11.9,-9.9
 2004/03/01,16:30,16,54,11.8,-9.9
 2004/03/01,16:45,16.5,53,12.3,-9.9
 2004/03/01,17:00,15.9,53,12.3,-9.9
 2004/03/01,17:15,15.4,53,12.2,-9.9
 2004/03/01,17:30,15.1,52,12.2,-9.9
 2004/03/01,17:45,15,52,11.6,-9.9
 2004/03/01,18:00,17.1,51,11.7,-9.9
 2004/03/01,18:15,16.4,57,11.4,-9.9
 2004/03/01,18:30,16.3,54,11.7,-9.9
 2004/03/01,18:45,18.9,53,11.8,-9.9
 2004/03/01,19:00,19.7,56,11.8,-9.9
 2004/03/01,19:15,19.8,58,11.8,-9.9
 2004/03/01,19:30,20.1,58,11.8,-9.9
 2004/03/01,19:45,19.9,58,11.8,-9.9
 2004/03/01,20:00,20.3,57,12.1,-9.9
 2004/03/01,20:15,20.1,56,12,-9.9
 2004/03/01,20:30,20.3,56,12.1,-9.9
 2004/03/01,20:45,20.3,54,12.1,-9.9
 2004/03/01,21:00,20.4,54,12,-9.9
 2004/03/01,21:15,19,52,12,-9.9
 2004/03/01,21:30,18.4,49,12,-9.9
 2004/03/01,21:45,19,46,12.1,-9.9
 2004/03/01,22:00,18.5,46,12,-9.9
 2004/03/01,22:15,17.9,46,11.8,-9.9
 2004/03/01,22:30,17.5,45,11.9,-9.9
 2004/03/01,22:45,17.2,49,11.8,-9.9
 2004/03/01,23:00,17.4,48,11.7,-9.9
 2004/03/01,23:15,17.1,48,11.6,-9.9
 2004/03/01,23:30,17,48,11.5,-9.9
 2004/03/01,23:45,16.7,48,11.4,-9.9
 2004/03/02, 0:00,16.4,49,11.4,-9.9
 2004/03/02, 0:15,16.2,48,11.3,-9.9
 2004/03/02, 0:30,16,48,11.3,-9.9
 2004/03/02, 0:45,15.9,48,11.1,-9.9
 2004/03/02, 1:00,15.6,48,11.1,-9.9
 2004/03/02, 1:15,15.2,48,10.9,-9.9
 2004/03/02, 1:30,15.1,47,10.9,-9.9
 2004/03/02, 1:45,14.9,47,10.8,-9.9
 2004/03/02, 2:00,14.7,47,10.7,-9.9
 2004/03/02, 2:15,14.6,47,10.7,-9.9
 2004/03/02, 2:30,14.4,47,10.5,-9.9
 2004/03/02, 2:45,14.2,47,10.5,-9.9
 2004/03/02, 3:00,14,47,10.3,-9.9
 2004/03/02, 3:15,13.8,47,10.3,-9.9
 2004/03/02, 3:30,13.5,47,10.2,-9.9
 2004/03/02, 3:45,13.5,47,10.1,-9.9
 2004/03/02, 4:00,13.3,47,10,-9.9
 2004/03/02, 4:15,13.2,47,9.9,-9.9
 2004/03/02, 4:30,13,47,9.8,-9.9
 2004/03/02, 4:45,12.8,47,9.8,-9.9
 2004/03/02, 5:00,12.6,47,9.7,-9.9
 2004/03/02, 5:15,12.6,47,9.6,-9.9
 2004/03/02, 5:30,12.3,47,9.5,-9.9
 2004/03/02, 5:45,12.3,47,9.4,-9.9
 2004/03/02, 6:00,12.2,46,9.3,-9.9
 2004/03/02, 6:15,12.1,47,9.2,-9.9
 2004/03/02, 6:30,13.6,47,9.3,-9.9
 2004/03/02, 6:45,16.7,49,9.2,-9.9
 2004/03/02, 7:00,17.6,48,9.4,-9.9
 2004/03/02, 7:15,18.8,44,9.2,-9.9
 2004/03/02, 7:30,19.6,42,9.2,-9.9
 2004/03/02, 7:45,18.4,42,9.4,-9.9
 2004/03/02, 8:00,16.8,43,9.4,-9.9
 2004/03/02, 8:15,16.3,43,9,-9.9
 2004/03/02, 8:30,18.1,43,9.8,-9.9
 2004/03/02, 8:45,16,39,10.5,-9.9
 2004/03/02, 9:00,15.3,40,10.5,-9.9
 2004/03/02, 9:15,14.9,41,10.5,-9.9
 2004/03/02, 9:30,15.4,42,11,-9.9
 2004/03/02, 9:45,14.8,43,10.8,-9.9
 2004/03/02,10:00,14.4,45,10.9,-9.9
 2004/03/02,10:15,14.5,51,11.4,-9.9
 2004/03/02,10:30,14.1,50,11.5,-9.9
 2004/03/02,10:45,14,48,11.6,-9.9
 2004/03/02,11:00,14,48,11.5,-9.9
 2004/03/02,11:15,13.9,48,11.6,-9.9
 2004/03/02,11:30,13.8,48,11.6,-9.9
 2004/03/02,11:45,13.8,48,11.7,-9.9
 2004/03/02,12:00,13.7,48,11.8,-9.9
 2004/03/02,12:15,13.8,48,11.8,-9.9
 2004/03/02,12:30,13.9,48,11.8,-9.9
 2004/03/02,12:45,13.8,48,11.9,-9.9
 2004/03/02,13:00,13.8,48,12,-9.9
 2004/03/02,13:15,13.9,49,12,-9.9
 2004/03/02,13:30,14.2,49,11.9,-9.9
 2004/03/02,13:45,14.2,49,11.8,-9.9
 2004/03/02,14:00,14.2,49,11.9,-9.9
 2004/03/02,14:15,14.2,49,12,-9.9
 2004/03/02,14:30,14.2,49,12,-9.9
 2004/03/02,14:45,14.2,49,12.3,-9.9
 2004/03/02,15:00,14.5,50,12.3,-9.9
 2004/03/02,15:15,14.5,51,12.2,-9.9
 2004/03/02,15:30,14.5,50,12.2,-9.9
 2004/03/02,15:45,14.5,50,12.2,-9.9
 2004/03/02,16:00,14.6,50,12.2,-9.9
 2004/03/02,16:15,14.6,49,12.5,-9.9
 2004/03/02,16:30,14.7,49,12.2,-9.9
 2004/03/02,16:45,14.7,47,12.3,-9.9
 2004/03/02,17:00,14.5,47,12.3,-9.9
 2004/03/02,17:15,14.4,46,12.3,-9.9
 2004/03/02,17:30,14.2,46,12.3,-9.9
 2004/03/02,17:45,14.2,46,12.2,-9.9
 2004/03/02,18:00,14.1,46,12,-9.9
 2004/03/02,18:15,16.3,45,12,-9.9
 2004/03/02,18:30,18.4,42,12.2,-9.9
 2004/03/02,18:45,19.2,42,12.2,-9.9
 2004/03/02,19:00,20.2,40,12.1,-9.9
 2004/03/02,19:15,20.8,39,12,-9.9
 2004/03/02,19:30,21,42,12,-9.9
 2004/03/02,19:45,20.9,44,12.1,-9.9
 2004/03/02,20:00,20.8,45,12.1,-9.9
 2004/03/02,20:15,20.9,47,12,-9.9
 2004/03/02,20:30,20.6,49,11.9,-9.9
 2004/03/02,20:45,20.4,51,11.9,-9.9
 2004/03/02,21:00,20.6,51,11.9,-9.9
 2004/03/02,21:15,19.5,51,11.8,-9.9
 2004/03/02,21:30,19,51,11.8,-9.9
 2004/03/02,21:45,18.6,51,11.6,-9.9
 2004/03/02,22:00,18,51,11.6,-9.9
 2004/03/02,22:15,17.8,50,11.5,-9.9
 2004/03/02,22:30,17.4,50,11.4,-9.9
 2004/03/02,22:45,17,50,11.4,-9.9
 2004/03/02,23:00,16.7,51,11.3,-9.9
 2004/03/02,23:15,16.6,51,11.3,-9.9
 2004/03/02,23:30,16.4,51,11.1,-9.9
 2004/03/02,23:45,16.2,51,11,-9.9
 2004/03/03, 0:00,16,51,10.9,-9.9
 2004/03/03, 0:15,15.8,50,10.8,-9.9
 2004/03/03, 0:30,15.5,50,10.7,-9.9
 2004/03/03, 0:45,15.4,50,10.7,-9.9
 2004/03/03, 1:00,15.1,50,10.5,-9.9
 2004/03/03, 1:15,14.9,50,10.4,-9.9
 2004/03/03, 1:30,14.7,50,10.3,-9.9
 2004/03/03, 1:45,14.5,50,10.3,-9.9
 2004/03/03, 2:00,14.3,50,10.2,-9.9
 2004/03/03, 2:15,14.2,50,10.1,-9.9
 2004/03/03, 2:30,14,49,10,-9.9
 2004/03/03, 2:45,13.8,49,10,-9.9
 2004/03/03, 3:00,13.6,49,9.9,-9.9
 2004/03/03, 3:15,13.5,49,9.8,-9.9
 2004/03/03, 3:30,13.3,49,9.7,-9.9
 2004/03/03, 3:45,13.2,49,9.7,-9.9
 2004/03/03, 4:00,13.1,49,9.6,-9.9
 2004/03/03, 4:15,12.9,49,9.6,-9.9
 2004/03/03, 4:30,12.8,49,9.5,-9.9
 2004/03/03, 4:45,12.6,50,9.8,-9.9
 2004/03/03, 5:00,12.5,50,9.7,-9.9
 2004/03/03, 5:15,12.5,51,9.6,-9.9
 2004/03/03, 5:30,12.4,51,9.5,-9.9
 2004/03/03, 5:45,12.4,51,9.5,-9.9
 2004/03/03, 6:00,12.3,51,9.4,-9.9
 2004/03/03, 6:15,12.2,51,9.3,-9.9
 2004/03/03, 6:30,16.4,52,9.3,-9.9
 2004/03/03, 6:45,18.4,52,9.2,-9.9
 2004/03/03, 7:00,19.5,53,9.2,-9.9
 2004/03/03, 7:15,19.8,53,9.2,-9.9
 2004/03/03, 7:30,20.2,49,9.2,-9.9
 2004/03/03, 7:45,20.3,50,9.3,-9.9
 2004/03/03, 8:00,20.3,50,9.3,-9.9
 2004/03/03, 8:15,20.2,50,9.5,-9.9
 2004/03/03, 8:30,18.1,42,9.8,-9.9
 2004/03/03, 8:45,17.3,41,9.4,-9.9
 2004/03/03, 9:00,16.8,39,9.8,-9.9
 2004/03/03, 9:15,16.4,38,10.2,-9.9
 2004/03/03, 9:30,18.9,38,10.3,-9.9
 2004/03/03, 9:45,17.5,40,10.3,-9.9
 2004/03/03,10:00,17.1,41,10.3,-9.9
 2004/03/03,10:15,16.9,41,10.7,-9.9
 2004/03/03,10:30,16.6,41,10.8,-9.9
 2004/03/03,10:45,16.5,41,10.6,-9.9
 2004/03/03,11:00,16.2,41,10.5,-9.9
 2004/03/03,11:15,16.2,41,10.5,-9.9
 2004/03/03,11:30,16,41,10.5,-9.9
 2004/03/03,11:45,20,38,10.5,-9.9
 2004/03/03,12:00,20.6,38,10.6,-9.9
 2004/03/03,12:15,21.2,38,10.7,-9.9
 2004/03/03,12:30,21.4,38,10.9,-9.9
 2004/03/03,12:45,21.7,37,10.9,-9.9
 2004/03/03,13:00,19.6,38,10.9,-9.9
 2004/03/03,13:15,19,37,10.9,-9.9
 2004/03/03,13:30,18.3,37,10.9,-9.9
 2004/03/03,13:45,17.9,37,11,-9.9
 2004/03/03,14:00,17.6,37,10.9,-9.9
 2004/03/03,14:15,17.4,38,11,-9.9
 2004/03/03,14:30,19.6,37,11.1,-9.9
 2004/03/03,14:45,20.6,37,11,-9.9
 2004/03/03,15:00,20.9,38,11.1,-9.9
 2004/03/03,15:15,21.1,38,11.1,-9.9
 2004/03/03,15:30,21,38,11.2,-9.9
 2004/03/03,15:45,21.7,34,11.1,-9.9
 2004/03/03,16:00,19.7,33,11.1,-9.9
 2004/03/03,16:15,18.6,31,11.7,-9.9
 2004/03/03,16:30,17.9,31,11.8,-9.9
 2004/03/03,16:45,17.6,30,11.2,-9.9
 2004/03/03,17:00,17.1,30,11.1,-9.9
 2004/03/03,17:15,16.8,30,11,-9.9
 2004/03/03,17:30,16.4,30,10.9,-9.9
 2004/03/03,17:45,18.8,31,10.9,-9.9
 2004/03/03,18:00,21,30,10.7,-9.9
 2004/03/03,18:15,21.7,29,10.9,-9.9
 2004/03/03,18:30,22.5,28,10.9,-9.9
 2004/03/03,18:45,22.7,27,11,-9.9
 2004/03/03,19:00,22.4,27,11,-9.9
 2004/03/03,19:15,20.4,28,11,-9.9
 2004/03/03,19:30,19.8,28,11,-9.9
 2004/03/03,19:45,21.6,28,10.9,-9.9
 2004/03/03,20:00,22.9,27,11.1,-9.9
 2004/03/03,20:15,22.9,29,11,-9.9
 2004/03/03,20:30,23,31,10.9,-9.9
 2004/03/03,20:45,22.8,31,10.9,-9.9
 2004/03/03,21:00,23,30,11,-9.9
 2004/03/03,21:15,22.4,30,10.8,-9.9
 2004/03/03,21:30,22.2,30,10.8,-9.9
 2004/03/03,21:45,22.2,30,10.7,-9.9
 2004/03/03,22:00,22.4,29,10.6,-9.9
 2004/03/03,22:15,22.1,29,10.5,-9.9
 2004/03/03,22:30,21.3,30,10.6,-9.9
 2004/03/03,22:45,20.3,34,10.7,-9.9
 2004/03/03,23:00,20.2,36,10.7,-9.9
 2004/03/03,23:15,19.5,37,10.7,-9.9
 2004/03/03,23:30,18.8,37,10.6,-9.9
 2004/03/03,23:45,18.6,39,10.5,-9.9
 2004/03/04, 0:00,18.3,45,10.5,-9.9
 2004/03/04, 0:15,18.2,46,10.5,-9.9
 2004/03/04, 0:30,17.8,46,10.5,-9.9
 2004/03/04, 0:45,17.5,45,10.4,-9.9
 2004/03/04, 1:00,17.1,45,10.3,-9.9
 2004/03/04, 1:15,16.9,46,10.3,-9.9
 2004/03/04, 1:30,16.7,46,10.2,-9.9
 2004/03/04, 1:45,16.4,46,10,-9.9
 2004/03/04, 2:00,16.3,46,10,-9.9
 2004/03/04, 2:15,16.1,46,9.9,-9.9
 2004/03/04, 2:30,15.9,46,9.8,-9.9
 2004/03/04, 2:45,15.7,47,9.7,-9.9
 2004/03/04, 3:00,15.5,47,9.8,-9.9
 2004/03/04, 3:15,15.2,47,9.8,-9.9
 2004/03/04, 3:30,15.2,47,9.7,-9.9
 2004/03/04, 3:45,15,47,9.7,-9.9
 2004/03/04, 4:00,14.8,47,9.5,-9.9
 2004/03/04, 4:15,14.5,47,9.5,-9.9
 2004/03/04, 4:30,14.4,47,9.5,-9.9
 2004/03/04, 4:45,14.3,47,9.5,-9.9
 2004/03/04, 5:00,14.2,47,9.6,-9.9
 2004/03/04, 5:15,14.2,47,9.5,-9.9
 2004/03/04, 5:30,14,47,9.4,-9.9
 2004/03/04, 5:45,14.4,47,9.5,-9.9
 2004/03/04, 6:00,17.1,48,9.5,-9.9
 2004/03/04, 6:15,15.8,52,9.5,-9.9
 2004/03/04, 6:30,17.3,50,9.5,-9.9
 2004/03/04, 6:45,19.7,50,9.5,-9.9
 2004/03/04, 7:00,20.1,50,9.6,-9.9
 2004/03/04, 7:15,20.8,49,9.7,-9.9
 2004/03/04, 7:30,20.8,48,9.7,-9.9
 2004/03/04, 7:45,20.6,47,9.6,-9.9
 2004/03/04, 8:00,20.7,47,9.5,-9.9
 2004/03/04, 8:15,21,45,9.8,-9.9
 2004/03/04, 8:30,20.6,45,10,-9.9
 2004/03/04, 8:45,19.5,40,11.6,-9.9
 2004/03/04, 9:00,18.5,36,11.4,-9.9
 2004/03/04, 9:15,17.7,40,11.4,-9.9
 2004/03/04, 9:30,17.1,39,11.3,-9.9
 2004/03/04, 9:45,17,40,10.7,-9.9
 2004/03/04,10:00,16.8,40,10.7,-9.9
 2004/03/04,10:15,16.5,40,10.6,-9.9
 2004/03/04,10:30,16.2,41,11.1,-9.9
 2004/03/04,10:45,16.2,41,11.3,-9.9
 2004/03/04,11:00,15.7,41,11,-9.9
 2004/03/04,11:15,15.6,41,10.7,-9.9
 2004/03/04,11:30,15.2,41,10.7,-9.9
 2004/03/04,11:45,15.1,41,10.7,-9.9
 2004/03/04,12:00,14.9,41,10.7,-9.9
 2004/03/04,12:15,14.8,41,10.7,-9.9
 2004/03/04,12:30,14.5,41,10.7,-9.9
 2004/03/04,12:45,14.4,41,10.7,-9.9
 2004/03/04,13:00,14.1,41,10.7,-9.9
 2004/03/04,13:15,14,41,10.7,-9.9
 2004/03/04,13:30,13.8,41,10.7,-9.9
 2004/03/04,13:45,13.8,41,10.7,-9.9
 2004/03/04,14:00,13.6,40,10.8,-9.9
 2004/03/04,14:15,13.5,41,11,-9.9
 2004/03/04,14:30,13.3,41,11,-9.9
 2004/03/04,14:45,15.7,40,10.9,-9.9
 2004/03/04,15:00,18.2,38,10.9,-9.9
 2004/03/04,15:15,19.5,37,11.1,-9.9
 2004/03/04,15:30,20.4,36,11.2,-9.9
 2004/03/04,15:45,18.4,36,11.8,-9.9
 2004/03/04,16:00,16.9,35,11.8,-9.9
 2004/03/04,16:15,16.1,36,11.5,-9.9
 2004/03/04,16:30,16.9,36,11.4,-9.9
 2004/03/04,16:45,19.7,35,11.4,-9.9
 2004/03/04,17:00,20.6,35,11.3,-9.9
 2004/03/04,17:15,18.2,36,11.6,-9.9
 2004/03/04,17:30,17.5,38,11.6,-9.9
 2004/03/04,17:45,17,41,11.4,-9.9
 2004/03/04,18:00,16.3,38,11.7,-9.9
 2004/03/04,18:15,15.7,38,11.5,-9.9
 2004/03/04,18:30,19.2,38,11,-9.9
 2004/03/04,18:45,20.2,39,10.9,-9.9
 2004/03/04,19:00,20.8,35,11.1,-9.9
 2004/03/04,19:15,20.9,37,10.9,-9.9
 2004/03/04,19:30,20.7,39,10.8,-9.9
 2004/03/04,19:45,20.8,37,10.9,-9.9
 2004/03/04,20:00,21.4,35,11.1,-9.9
 2004/03/04,20:15,21.4,34,11.5,-9.9
 2004/03/04,20:30,22,35,11.1,-9.9
 2004/03/04,20:45,21.9,34,11.1,-9.9
 2004/03/04,21:00,21,35,11,-9.9
 2004/03/04,21:15,21.5,35,10.9,-9.9
 2004/03/04,21:30,22.4,34,10.8,-9.9
 2004/03/04,21:45,22.2,35,10.8,-9.9
 2004/03/04,22:00,22.6,34,10.7,-9.9
 2004/03/04,22:15,22,35,10.7,-9.9
 2004/03/04,22:30,20.6,38,10.6,-9.9
 2004/03/04,22:45,19.7,38,10.5,-9.9
 2004/03/04,23:00,19.2,37,10.5,-9.9
 2004/03/04,23:15,18.4,36,10.4,-9.9
 2004/03/04,23:30,18,35,10.3,-9.9
 2004/03/04,23:45,17.4,35,10.1,-9.9
 2004/03/05, 0:00,17,35,10,-9.9
 2004/03/05, 0:15,16.6,35,10,-9.9
 2004/03/05, 0:30,16.3,35,9.8,-9.9
 2004/03/05, 0:45,15.8,35,9.8,-9.9
 2004/03/05, 1:00,15.7,35,9.7,-9.9
 2004/03/05, 1:15,15.5,36,9.6,-9.9
 2004/03/05, 1:30,15.1,36,9.5,-9.9
 2004/03/05, 1:45,14.8,36,9.4,-9.9
 2004/03/05, 2:00,14.6,36,9.8,-9.9
 2004/03/05, 2:15,14.4,36,9.8,-9.9
 2004/03/05, 2:30,14.1,36,9.6,-9.9
 2004/03/05, 2:45,13.8,36,9.5,-9.9
 2004/03/05, 3:00,13.5,36,9.5,-9.9
 2004/03/05, 3:15,13.2,37,9.3,-9.9
 2004/03/05, 3:30,13,37,9.2,-9.9
 2004/03/05, 3:45,12.7,37,9.2,-9.9
 2004/03/05, 4:00,12.4,37,9.1,-9.9
 2004/03/05, 4:15,12.3,37,8.9,-9.9
 2004/03/05, 4:30,12.1,37,8.9,-9.9
 2004/03/05, 4:45,11.8,37,8.8,-9.9
 2004/03/05, 5:00,11.6,38,8.6,-9.9
 2004/03/05, 5:15,11.4,38,8.6,-9.9
 2004/03/05, 5:30,11.2,38,8.5,-9.9
 2004/03/05, 5:45,11,38,8.4,-9.9
 2004/03/05, 6:00,14.9,41,8.2,-9.9
 2004/03/05, 6:15,17,44,8.2,-9.9
 2004/03/05, 6:30,18.7,45,8.3,-9.9
 2004/03/05, 6:45,19.9,43,8.1,-9.9
 2004/03/05, 7:00,20.7,43,8.2,-9.9
 2004/03/05, 7:15,21.2,43,8.3,-9.9
 2004/03/05, 7:30,21,41,8.5,-9.9
 2004/03/05, 7:45,20,40,9.5,-9.9
 2004/03/05, 8:00,17.8,38,9.6,-9.9
 2004/03/05, 8:15,16.6,35,9.4,-9.9
 2004/03/05, 8:30,15.6,34,9.8,-9.9
 2004/03/05, 8:45,15.1,33,9,-9.9
 2004/03/05, 9:00,14.7,34,9.3,-9.9
 2004/03/05, 9:15,15.7,33,9.2,-9.9
 2004/03/05, 9:30,19.3,34,9.5,-9.9
 2004/03/05, 9:45,17.6,37,9.8,-9.9
 2004/03/05,10:00,16.5,39,9.8,-9.9
 2004/03/05,10:15,16.2,48,10.3,-9.9
 2004/03/05,10:30,16,48,10.6,-9.9
 2004/03/05,10:45,15.6,47,10.9,-9.9
 2004/03/05,11:00,15.4,46,10.7,-9.9
 2004/03/05,11:15,15.1,46,10.7,-9.9
 2004/03/05,11:30,14.8,46,10.7,-9.9
 2004/03/05,11:45,14.6,46,10.7,-9.9
 2004/03/05,12:00,14.5,46,10.7,-9.9
 2004/03/05,12:15,14.3,46,10.8,-9.9
 2004/03/05,12:30,14.4,45,10.9,-9.9
 2004/03/05,12:45,14.3,45,10.9,-9.9
 2004/03/05,13:00,14.2,45,11,-9.9
 2004/03/05,13:15,14.1,45,11.1,-9.9
 2004/03/05,13:30,14,44,11.1,-9.9
 2004/03/05,13:45,14,44,11.1,-9.9
 2004/03/05,14:00,14.1,43,11.2,-9.9
 2004/03/05,14:15,14,43,11.2,-9.9
 2004/03/05,14:30,13.9,43,11.2,-9.9
 2004/03/05,14:45,13.9,43,11.3,-9.9
 2004/03/05,15:00,13.9,42,11.3,-9.9
 2004/03/05,15:15,17.7,42,11.6,-9.9
 2004/03/05,15:30,18.9,40,12.2,-9.9
 2004/03/05,15:45,19,43,12,-9.9
 2004/03/05,16:00,19.5,44,12.1,-9.9
 2004/03/05,16:15,19.4,44,12.2,-9.9
 2004/03/05,16:30,19.3,43,12.5,-9.9
 2004/03/05,16:45,18.3,39,12.8,-9.9
 2004/03/05,17:00,20.5,38,12.4,-9.9
 2004/03/05,17:15,20.8,38,12.8,-9.9
 2004/03/05,17:30,19.7,38,13.2,-9.9
 2004/03/05,17:45,18.6,37,13.2,-9.9
 2004/03/05,18:00,18,37,13.2,-9.9
 2004/03/05,18:15,17.6,38,13,-9.9
 2004/03/05,18:30,19.3,38,12.4,-9.9
 2004/03/05,18:45,19.9,40,12.3,-9.9
 2004/03/05,19:00,20.2,38,12.8,-9.9
 2004/03/05,19:15,20.3,38,12.6,-9.9
 2004/03/05,19:30,20.5,40,12.7,-9.9
 2004/03/05,19:45,20.5,42,12.5,-9.9
 2004/03/05,20:00,20.6,42,12.8,-9.9
 2004/03/05,20:15,19.6,43,12.7,-9.9
 2004/03/05,20:30,19,44,12.6,-9.9
 2004/03/05,20:45,18.5,44,12.5,-9.9
 2004/03/05,21:00,18.3,43,12.5,-9.9
 2004/03/05,21:15,18.2,48,12.6,-9.9
 2004/03/05,21:30,20.4,43,12.5,-9.9
 2004/03/05,21:45,18.9,44,12.5,-9.9
 2004/03/05,22:00,18.5,44,12.4,-9.9
 2004/03/05,22:15,18.1,45,12.5,-9.9
 2004/03/05,22:30,17.9,45,12.4,-9.9
 2004/03/05,22:45,18,45,12.5,-9.9
 2004/03/05,23:00,17.9,45,12.4,-9.9
 2004/03/05,23:15,17.6,46,12.4,-9.9
 2004/03/05,23:30,17.5,46,12.4,-9.9
 2004/03/05,23:45,17.6,46,12.4,-9.9
 2004/03/06, 0:00,17.6,46,12.4,-9.9
 2004/03/06, 0:15,17.4,46,12.4,-9.9
 2004/03/06, 0:30,17.5,45,12.4,-9.9
 2004/03/06, 0:45,17.2,46,12.4,-9.9
 2004/03/06, 1:00,17.1,46,12.4,-9.9
 2004/03/06, 1:15,17,46,12.4,-9.9
 2004/03/06, 1:30,16.7,45,12.4,-9.9
 2004/03/06, 1:45,16.7,45,12.3,-9.9
 2004/03/06, 2:00,16.5,44,12.2,-9.9
 2004/03/06, 2:15,16.2,44,12,-9.9
 2004/03/06, 2:30,16,44,12,-9.9
 2004/03/06, 2:45,15.8,44,12,-9.9
 2004/03/06, 3:00,15.7,44,11.9,-9.9
 2004/03/06, 3:15,15.6,44,11.8,-9.9
 2004/03/06, 3:30,15.4,44,11.9,-9.9
 2004/03/06, 3:45,15.1,44,11.9,-9.9
 2004/03/06, 4:00,14.9,44,11.9,-9.9
 2004/03/06, 4:15,14.8,44,11.8,-9.9
 2004/03/06, 4:30,14.5,44,11.6,-9.9
 2004/03/06, 4:45,14.5,43,11.6,-9.9
 2004/03/06, 5:00,14.4,43,11.4,-9.9
 2004/03/06, 5:15,14.1,44,11.2,-9.9
 2004/03/06, 5:30,14,44,11.1,-9.9
 2004/03/06, 5:45,13.7,44,11.1,-9.9
 2004/03/06, 6:00,13.6,44,11.1,-9.9
 2004/03/06, 6:15,13.5,44,11.1,-9.9
 2004/03/06, 6:30,13.4,44,11.1,-9.9
 2004/03/06, 6:45,13.3,44,10.9,-9.9
 2004/03/06, 7:00,16.3,44,10.8,-9.9
 2004/03/06, 7:15,18.5,44,10.9,-9.9
 2004/03/06, 7:30,19.4,46,10.9,-9.9
 2004/03/06, 7:45,19.9,47,11.1,-9.9
 2004/03/06, 8:00,19.7,49,11.2,-9.9
 2004/03/06, 8:15,20,46,11.3,-9.9
 2004/03/06, 8:30,19.9,47,11.2,-9.9
 2004/03/06, 8:45,19.8,48,11.5,-9.9
 2004/03/06, 9:00,19.5,48,11.4,-9.9
 2004/03/06, 9:15,20,46,11.7,-9.9
 2004/03/06, 9:30,19.6,45,12.1,-9.9
 2004/03/06, 9:45,20.1,46,12.1,-9.9
 2004/03/06,10:00,19,46,12.7,-9.9
 2004/03/06,10:15,18,45,12.7,-9.9
 2004/03/06,10:30,17.3,44,12.9,-9.9
 2004/03/06,10:45,16.9,43,13.2,-9.9
 2004/03/06,11:00,19.2,38,13.4,-9.9
 2004/03/06,11:15,19.5,38,12.5,-9.9
 2004/03/06,11:30,19.4,40,12.3,-9.9
 2004/03/06,11:45,19.7,40,12.5,-9.9
 2004/03/06,12:00,17.8,40,12.8,-9.9
 2004/03/06,12:15,17.3,38,12.8,-9.9
 2004/03/06,12:30,16.7,38,12.8,-9.9
 2004/03/06,12:45,16.3,38,12.8,-9.9
 2004/03/06,13:00,15.9,38,12.8,-9.9
 2004/03/06,13:15,15.6,38,12.8,-9.9
 2004/03/06,13:30,15.3,38,12.7,-9.9
 2004/03/06,13:45,15.2,37,12.4,-9.9
 2004/03/06,14:00,14.8,37,12.4,-9.9
 2004/03/06,14:15,14.6,38,12.3,-9.9
 2004/03/06,14:30,14.5,38,12.3,-9.9
 2004/03/06,14:45,14.4,38,12.3,-9.9
 2004/03/06,15:00,14.2,38,12.2,-9.9
 2004/03/06,15:15,14.1,38,12.1,-9.9
 2004/03/06,15:30,13.9,37,12,-9.9
 2004/03/06,15:45,13.7,38,12,-9.9
 2004/03/06,16:00,13.7,38,11.8,-9.9
 2004/03/06,16:15,13.7,38,11.8,-9.9
 2004/03/06,16:30,13.6,38,11.6,-9.9
 2004/03/06,16:45,13.6,38,11.6,-9.9
 2004/03/06,17:00,13.5,38,11.4,-9.9
 2004/03/06,17:15,13.4,38,11.6,-9.9
 2004/03/06,17:30,15.6,39,12.2,-9.9
 2004/03/06,17:45,14.2,39,11.7,-9.9
 2004/03/06,18:00,13.7,39,11.5,-9.9
 2004/03/06,18:15,13.6,39,11.3,-9.9
 2004/03/06,18:30,13.3,39,11.2,-9.9
 2004/03/06,18:45,13.1,39,11.1,-9.9
 2004/03/06,19:00,12.9,39,10.9,-9.9
 2004/03/06,19:15,12.7,39,10.6,-9.9
 2004/03/06,19:30,12.4,39,10.5,-9.9
 2004/03/06,19:45,12.5,39,10.2,-9.9
 2004/03/06,20:00,12.5,40,10,-9.9
 2004/03/06,20:15,12.2,40,9.9,-9.9
 2004/03/06,20:30,12,41,9.8,-9.9
 2004/03/06,20:45,12,41,9.8,-9.9
 2004/03/06,21:00,12.1,41,9.7,-9.9
 2004/03/06,21:15,11.8,41,9.4,-9.9
 2004/03/06,21:30,15.8,42,9.7,-9.9
 2004/03/06,21:45,17.4,46,9.8,-9.9
 2004/03/06,22:00,18.9,47,10.1,-9.9
 2004/03/06,22:15,20,49,9.8,-9.9
 2004/03/06,22:30,20.5,48,9.9,-9.9
 2004/03/06,22:45,20.6,48,10.2,-9.9
 2004/03/06,23:00,20.4,49,10,-9.9
 2004/03/06,23:15,20.8,48,10.4,-9.9
 2004/03/06,23:30,20.5,48,10.2,-9.9
 2004/03/06,23:45,20.7,48,9.9,-9.9
 2004/03/07, 0:00,20.1,47,10.1,-9.9
 2004/03/07, 0:15,18.3,47,10,-9.9
 2004/03/07, 0:30,17.5,47,9.8,-9.9
 2004/03/07, 0:45,16.7,47,9.9,-9.9
 2004/03/07, 1:00,16.3,46,9.7,-9.9
 2004/03/07, 1:15,15.7,46,9.5,-9.9
 2004/03/07, 1:30,15.4,45,9.5,-9.9
 2004/03/07, 1:45,15,45,9.3,-9.9
 2004/03/07, 2:00,14.6,46,9.2,-9.9
 2004/03/07, 2:15,14.2,46,9.2,-9.9
 2004/03/07, 2:30,13.9,46,9,-9.9
 2004/03/07, 2:45,13.6,45,8.9,-9.9
 2004/03/07, 3:00,13.4,45,8.8,-9.9
 2004/03/07, 3:15,13.1,45,8.7,-9.9
 2004/03/07, 3:30,12.8,46,8.6,-9.9
 2004/03/07, 3:45,12.5,46,8.6,-9.9
 2004/03/07, 4:00,12.3,46,8.4,-9.9
 2004/03/07, 4:15,12.2,46,8.4,-9.9
 2004/03/07, 4:30,12,46,8.4,-9.9
 2004/03/07, 4:45,11.9,46,8.2,-9.9
 2004/03/07, 5:00,11.7,46,8.2,-9.9
 2004/03/07, 5:15,12.9,47,8.3,-9.9
 2004/03/07, 5:30,12.1,47,8.6,-9.9
 2004/03/07, 5:45,11.5,44,7.3,-9.9
 2004/03/07, 6:00,15.1,45,8.3,-9.9
 2004/03/07, 6:15,14.9,45,8.6,-9.9
 2004/03/07, 6:30,13.1,46,8.7,-9.9
 2004/03/07, 6:45,12.5,45,8.6,-9.9
 2004/03/07, 7:00,12.2,45,8.6,-9.9
 2004/03/07, 7:15,11.9,45,8.4,-9.9
 2004/03/07, 7:30,11.6,45,8.4,-9.9
 2004/03/07, 7:45,11.3,45,8.3,-9.9
 2004/03/07, 8:00,11.2,45,8.2,-9.9
 2004/03/07, 8:15,10.9,45,8.3,-9.9
 2004/03/07, 8:30,10.7,45,8.1,-9.9
 2004/03/07, 8:45,10.5,45,8.1,-9.9
 2004/03/07, 9:00,10.5,45,8.2,-9.9
 2004/03/07, 9:15,10.3,45,8.2,-9.9
 2004/03/07, 9:30,10.3,45,8.3,-9.9
 2004/03/07, 9:45,10.3,45,8.3,-9.9
 2004/03/07,10:00,10.1,45,8.4,-9.9
 2004/03/07,10:15,10,45,8.5,-9.9
 2004/03/07,10:30,10,45,8.6,-9.9
 2004/03/07,10:45,9.9,45,8.9,-9.9
 2004/03/07,11:00,9.8,45,8.7,-9.9
 2004/03/07,11:15,9.8,45,8.7,-9.9
 2004/03/07,11:30,9.8,45,8.6,-9.9
 2004/03/07,11:45,9.8,45,8.6,-9.9
 2004/03/07,12:00,9.8,45,8.7,-9.9
 2004/03/07,12:15,9.8,44,8.7,-9.9
 2004/03/07,12:30,9.8,44,8.7,-9.9
 2004/03/07,12:45,9.8,44,8.7,-9.9
 2004/03/07,13:00,9.8,43,8.7,-9.9
 2004/03/07,13:15,9.8,43,8.8,-9.9
 2004/03/07,13:30,9.8,43,8.7,-9.9
 2004/03/07,13:45,9.8,43,8.8,-9.9
 2004/03/07,14:00,9.8,43,8.9,-9.9
 2004/03/07,14:15,9.8,43,8.9,-9.9
 2004/03/07,14:30,9.8,43,8.7,-9.9
 2004/03/07,14:45,9.7,43,8.5,-9.9
 2004/03/07,15:00,9.6,43,8.4,-9.9
 2004/03/07,15:15,9.6,43,8.4,-9.9
 2004/03/07,15:30,9.6,44,8.3,-9.9
 2004/03/07,15:45,9.5,44,8.3,-9.9
 2004/03/07,16:00,9.5,44,8.3,-9.9
 2004/03/07,16:15,9.4,44,8.2,-9.9
 2004/03/07,16:30,9.4,44,8.2,-9.9
 2004/03/07,16:45,9.3,44,8.2,-9.9
 2004/03/07,17:00,9.3,44,8.1,-9.9
 2004/03/07,17:15,9.2,44,7.9,-9.9
 2004/03/07,17:30,9.1,44,7.8,-9.9
 2004/03/07,17:45,9,44,7.8,-9.9
 2004/03/07,18:00,8.9,45,7.8,-9.9
 2004/03/07,18:15,12.1,45,8.2,-9.9
 2004/03/07,18:30,14.5,45,8.4,-9.9
 2004/03/07,18:45,16.2,44,8.4,-9.9
 2004/03/07,19:00,17,43,8.6,-9.9
 2004/03/07,19:15,18.4,42,8.6,-9.9
 2004/03/07,19:30,19.4,43,8.6,-9.9
 2004/03/07,19:45,20.1,41,8.7,-9.9
 2004/03/07,20:00,20.7,39,8.9,-9.9
 2004/03/07,20:15,21.2,37,9,-9.9
 2004/03/07,20:30,21.1,35,9.1,-9.9
 2004/03/07,20:45,21.4,36,9.2,-9.9